AAL2966 KDFW-KMSY

Flight info

Callsign AAL2966
Flight time N/A
Altitude 37000
Route MRSSH3 ZALEA SWEUP LSU AWDAD1
Aircraft A319/M-SDE3FGHIRWY/LB1

Departure

Time 2026-05-07 03:11
Airport Dallas Fort Worth International Airport (KDFW)

Arrival

Time N/A
Airport Louis Armstrong New Orleans International Airport (KMSY)
Time Latitude Longitude Altitude Speed Heading
2026-05-07 02:48 32.90009 -97.04362 598 ft 0 kts 176°
2026-05-07 03:00 32.90025 -97.04364 598 ft 4 kts 175°
2026-05-07 03:01 32.90051 -97.04367 598 ft 4 kts 185°
2026-05-07 03:01 32.90068 -97.04363 598 ft 4 kts 214°
2026-05-07 03:01 32.90078 -97.04345 598 ft 2 kts 280°
2026-05-07 03:01 32.90077 -97.04339 598 ft 0 kts 280°
2026-05-07 03:03 32.90082 -97.04377 591 ft 8 kts 275°
2026-05-07 03:04 32.90082 -97.04454 598 ft 10 kts 269°
2026-05-07 03:04 32.90083 -97.04550 598 ft 13 kts 271°
2026-05-07 03:04 32.90082 -97.04669 598 ft 15 kts 269°
2026-05-07 03:04 32.90038 -97.04766 598 ft 16 kts 190°
2026-05-07 03:05 32.89923 -97.04768 598 ft 17 kts 182°
2026-05-07 03:05 32.89797 -97.04768 598 ft 19 kts 180°
2026-05-07 03:05 32.89704 -97.04769 598 ft 13 kts 180°
2026-05-07 03:05 32.89604 -97.04768 598 ft 16 kts 180°
2026-05-07 03:06 32.89489 -97.04768 598 ft 17 kts 180°
2026-05-07 03:06 32.89363 -97.04768 598 ft 19 kts 180°
2026-05-07 03:06 32.89226 -97.04767 598 ft 20 kts 180°
2026-05-07 03:06 32.89082 -97.04768 598 ft 21 kts 180°
2026-05-07 03:07 32.88945 -97.04770 598 ft 19 kts 181°
2026-05-07 03:07 32.88804 -97.04771 598 ft 20 kts 180°
2026-05-07 03:07 32.88674 -97.04772 598 ft 19 kts 180°
2026-05-07 03:07 32.88535 -97.04775 598 ft 20 kts 191°
2026-05-07 03:08 32.88395 -97.04808 598 ft 21 kts 180°
2026-05-07 03:08 32.88256 -97.04808 598 ft 19 kts 180°
2026-05-07 03:08 32.88117 -97.04809 598 ft 21 kts 181°
2026-05-07 03:08 32.87989 -97.04836 598 ft 18 kts 238°
2026-05-07 03:09 32.87983 -97.04968 598 ft 0 kts 271°
2026-05-07 03:10 32.87984 -97.04985 598 ft 12 kts 271°
2026-05-07 03:10 32.88038 -97.05088 598 ft 17 kts 346°
2026-05-07 03:10 32.88160 -97.05092 598 ft 18 kts
2026-05-07 03:11 32.88313 -97.05092 598 ft 41 kts 360°
2026-05-07 03:11 32.88915 -97.05086 599 ft 127 kts
2026-05-07 03:11 32.90022 -97.05079 747 ft 180 kts
2026-05-07 03:11 32.91361 -97.05048 1259 ft 206 kts
2026-05-07 03:12 32.92894 -97.04994 1822 ft 233 kts
2026-05-07 03:12 32.94420 -97.04926 2547 ft 206 kts
2026-05-07 03:12 32.95961 -97.04814 3153 ft 239 kts 10°
2026-05-07 03:12 32.97045 -97.04369 3555 ft 259 kts 27°
2026-05-07 03:13 32.99122 -97.02627 4316 ft 267 kts 38°
2026-05-07 03:13 33.00469 -97.01183 4932 ft 265 kts 49°
2026-05-07 03:13 33.01155 -96.99949 5607 ft 270 kts 60°
2026-05-07 03:13 33.01779 -96.97002 6794 ft 289 kts 89°
2026-05-07 03:14 33.01677 -96.95372 7348 ft 296 kts 96°
2026-05-07 03:14 33.01455 -96.92929 8196 ft 304 kts 97°
2026-05-07 03:14 33.00728 -96.86917 10127 ft 321 kts 111°
2026-05-07 03:15 33.00200 -96.85253 10423 ft 333 kts 120°
2026-05-07 03:15 32.98488 -96.82059 11120 ft 349 kts 131°
2026-05-07 03:15 32.97548 -96.80488 11641 ft 355 kts 131°
2026-05-07 03:15 32.95618 -96.77231 12719 ft 363 kts 131°
2026-05-07 03:16 32.94166 -96.74768 13512 ft 369 kts 131°
2026-05-07 03:16 32.92683 -96.72245 14255 ft 375 kts 131°
2026-05-07 03:16 32.91173 -96.69674 14973 ft 380 kts 131°
2026-05-07 03:16 32.89651 -96.67082 15683 ft 384 kts 131°
2026-05-07 03:17 32.88631 -96.65347 16164 ft 387 kts 131°
2026-05-07 03:17 32.87080 -96.62712 16870 ft 392 kts 132°
2026-05-07 03:17 32.86286 -96.61365 17237 ft 394 kts 132°
2026-05-07 03:17 32.86020 -96.60914 17359 ft 394 kts 132°